Regional Weather Roundup
Issued by NWS Goodland, KS

Home | Current Version | Previous Version | Text Only | Print | Product List | Glossary On
Versions: 1 2 3 4 5 6 7 8 9 10 11 12 13 14 15 16 17 18 19 20 21 22 23 24 25 26 27 28 29 30 31 32 33 34 35 36 37 38 39 40 41 42 43 44 45 46 47 48 49 50
000
ASUS43 KGLD 261808
RWRGLD

GOODLAND FORECAST AREA HOURLY WEATHER ROUNDUP
NATIONAL WEATHER SERVICE GOODLAND KS
1200 PM MDT SUN MAR 26 2017

...OFFICIAL OBSERVATIONS...

CITY           SKY/WX    TMP DP  RH WIND       PRES   REMARKS
GOODLAND KS    CLOUDY    44  41  89 E10       29.86R
HILL CITY KS   CLOUDY    46  42  86 E12       29.90S
IMPERIAL NEB   CLOUDY    46  40  79 N5        29.89F
MCCOOK NEB     CLOUDY    44  42  93 NE10      29.89F
AKRON CO       CLOUDY    48  36  63 N15       29.89S
BURLINGTON CO  CLOUDY    49  41  74 E13G20    29.86R
LIMON CO       CLOUDY    45  38  76 N20       29.88R
$$

...UNOFFICIAL OBSERVATIONS...

CITY           SKY/WX    TMP DP  RH WIND       PRES   REMARKS
LENORA KS        N/A     44  32  63 CALM        N/A
NORTON KS      CLOUDY    43  37  81 NE12      29.88F
SHARON SPRINGS   N/A     40  39  96 NE12        N/A
TRENTON NEB      N/A     42  32  68 NE6         N/A
YUMA CO        CLOUDY    46  41  81 NE6       29.89S
$$



USA.gov is the U.S. government's official web portal to all federal, state and local government web resources and services.